Preview of NWS' New Version of Forecast
This preview is not operational and should not be used for support decisions.

Regional Weather Roundup (RWR)

Issued by National Weather Service (NWS)

                            
000
ASUS43 KLSX 180707
RWRMO 

WEATHER SUMMARY FOR MISSOURI
NATIONAL WEATHER SERVICE SPRINGFIELD MO
100 AM CST MON FEB 18 2019

NOTE: "FAIR" INDICATES FEW OR NO CLOUDS BELOW 12,000 FEET WITH NO
       SIGNIFICANT WEATHER AND/OR OBSTRUCTIONS TO VISIBILITY.
       CURRENT SKY AND/OR WEATHER CONDITIONS ARE NOT AVAILABLE FOR
       CHILLICOTHE AND FARMINGTON.

MOZ001>031-035>038-043-044-053-054-180800-
...NORTHERN AND WESTERN MISSOURI...
  
CITY           SKY/WX    TMP DP  RH WIND       PRES   REMARKS
KANSAS CTY INT CLEAR     16  11  80 NW9       30.21R WCI   4          
KANSAS C DTWN  CLEAR     20  12  71 W9        30.23R WCI   9          
LEE'S SUMMIT   CLEAR     18  13  80 W8        30.21R WCI   8          
ST JOSEPH      PTCLDY    16  13  88 NW12      30.23S WCI   3          
CHILLICOTHE      N/A     22  15  75 NW12G20   30.19R WCI  10          
KIRKSVILLE     CLOUDY    24  21  88 W12       30.13R WCI  13          
     
$$
MOZ066>068-077>081-088>096-101>105-180800-
...SOUTHWEST MISSOURI...
  
CITY           SKY/WX    TMP DP  RH WIND       PRES   REMARKS
SPRINGFIELD    CLOUDY    23  15  71 NW12      30.17S WCI  12          
JOPLIN         CLEAR     21  15  78 NW8       30.24S WCI  11          
BRANSON        MOCLDY    23  18  80 NW12      30.20R WCI  12          
               
$$
MOZ032>034-039>042-045>050-055>058-069>072-180800-
...CENTRAL MISSOURI...  
  
CITY           SKY/WX    TMP DP  RH WIND       PRES   REMARKS
COLUMBIA       CLOUDY    26  17  68 W13G24    30.16R WCI  15          
JEFFERSON CITY CLOUDY    27  17  66 W14       30.19R WCI  16          
ROLLA          CLOUDY    24  15  68 NW12      30.15R WCI  13          
SEDALIA        CLOUDY    24  17  74 W13       30.20R WCI  12          
WHITEMAN AFB   MOCLDY    22  15  73 W8        30.19R WCI  12          
WARRENSBURG    CLEAR     21  14  73 W5        30.22R WCI  15          
OSAGE BEACH    CLOUDY    25  17  72 W7        30.20R WCI  17          
               
$$
MOZ051-052-059>065-180800-
...EAST CENTRAL MISSOURI...
  
CITY           SKY/WX    TMP DP  RH WIND       PRES   REMARKS
ST LOUIS INTL  FLURRIES  29  21  72 W16G25    30.11R WCI  17          
SPIRIT OF STL  CLOUDY    29  21  72 W12       30.13R WCI  19          
ST CHARLES     CLOUDY    30  22  72 W13       30.12R WCI  20          
                   
$$
MOZ072>076-082>087-097>100-106>115-180800-
...SOUTH CENTRAL AND SOUTHEAST MISSOURI...
  
CITY           SKY/WX    TMP DP  RH WIND       PRES   REMARKS
CAPE GIRARDEAU FAIR      31  21  66 NW10      30.14R WCI  22          
FARMINGTON     CLOUDY    25  18  74 W7        30.12R WCI  17          
POPLAR BLUFF   FAIR      30  21  69 NW7       30.17R WCI  23          
WEST PLAINS    CLOUDY    24  18  77 NW9       30.15R WCI  14          
                                       
$$